Slocum Cook on mission AlterECO 1 Piloting

  • Public vehicle
  • Serial Number unit_194
  • Operated by NOC on the AlterECO project

  • Deployed: 2017/11/15 09:15:00 UTC (701 days ago) by David White
  • Recovered: 2018/02/07 13:30:00 UTC (617 days ago) by Charlotte Williams
  • Time at Sea: 2 months
  • Profiles Performed: 4409

Near Real-Time Data

 
chlorophyll
conductivity
temperature
 
12 hour batt inst
12 hour depth

Communication Log

# Updated Depth Speed Plots
1297378 2018-02-07 13:39:55 UTC (617 days ago)
1297369 2018-02-07 13:36:07 UTC (617 days ago)
1297358 2018-02-07 13:15:46 UTC (617 days ago)
1297355 2018-02-07 13:11:18 UTC (617 days ago)
1297353 2018-02-07 13:07:48 UTC (617 days ago)
1297345 2018-02-07 12:58:46 UTC (617 days ago)
1297342 2018-02-07 12:51:20 UTC (617 days ago)
1297337 2018-02-07 12:45:18 UTC (617 days ago)
1297332 2018-02-07 12:27:52 UTC (617 days ago)
1297331 2018-02-07 12:27:38 UTC (617 days ago)
1297323 2018-02-07 12:09:50 UTC (617 days ago)
1297321 2018-02-07 12:08:53 UTC (617 days ago)
1297320 2018-02-07 12:08:01 UTC (617 days ago)
1297324 2018-02-07 12:04:06 UTC (617 days ago)
1297314 2018-02-07 12:01:02 UTC (617 days ago)
1297313 2018-02-07 12:00:43 UTC (617 days ago)
1297300 2018-02-07 11:41:02 UTC (617 days ago)
1297299 2018-02-07 11:40:42 UTC (617 days ago)
1297288 2018-02-07 11:19:27 UTC (617 days ago)
1297283 2018-02-07 11:12:22 UTC (617 days ago)